[[{"header":{"parameterUnit":"m.s-1","parameterCategory":1,"la1":30.2991,"la2":30.254,"lo1":-89.0895,"lo2":-89.0444,"dy":0.0017,"dx":0.0017,"nx":28,"ny":28,"refTime":"2025-06-19T09:00:00:Z","depth":0,"parameterNumber":2,"parameterNumberName":"U-component_of_WINDS"},"data":[0,0,0,0,0,0,0,0,0,0,0,0,0,0,0,0,0,0,0,0,0,0,0,0,0,0,0,0,0,0,0,0,0,0,0,0,0,0,0,0,0,0,0,0,0,0,0,0,0,0,0,0,0,0,0,0,0,0,1.6723,1.6724,0,1.6812,1.6813,1.6814,1.6865,1.6865,1.6865,1.6866,1.696,1.6963,1.6965,0,0,0,0,0,0,0,0,0,0,0,0,0,1.6603,1.6605,1.6723,1.6724,1.6725,1.6811,1.6813,1.6814,1.6865,1.6865,1.6865,1.6866,1.696,1.6962,1.6965,0,0,0,0,0,0,0,0,0,0,0,0,0,1.667,1.6606,1.6723,1.6761,1.6765,1.6811,1.6813,1.6814,1.6865,1.6865,1.6865,1.6866,1.6959,1.6962,1.6966,1.6982,0,0,1.6976,1.6978,0,0,0,0,0,0,0,0,1.6666,1.6674,1.6754,1.6758,1.6763,1.6827,1.6805,1.6871,1.6865,1.6827,1.6866,1.6866,1.6916,1.6923,1.6939,1.6986,1.699,1.6977,1.6979,1.698,1.6981,0,0,0,0,0,0,0,1.6661,1.6671,1.6758,1.6755,1.6761,1.6775,1.6785,1.6818,1.6869,1.6831,1.6834,1.6844,1.6919,1.6936,1.6942,1.6992,1.6977,1.698,1.6982,1.6983,1.7057,1.7057,0,0,0,0,0,0,1.665,1.6666,1.6755,1.6761,1.6714,1.6777,1.6788,1.6807,1.6869,1.6879,1.6844,1.6846,1.693,1.6938,1.6946,1.6969,1.698,1.6984,1.6986,1.7057,1.7057,1.7057,0,0,0,0,0,0,1.6647,1.6657,1.6752,1.6715,1.6728,1.6779,1.6799,1.6808,1.6825,1.6879,1.6889,1.6851,1.693,1.6941,1.6972,1.6973,1.6985,1.6989,1.7057,1.7057,1.7057,1.7014,0,0,0,0,0,0,1.6643,1.6656,1.6661,1.6714,1.673,1.6775,1.6799,1.681,1.6831,1.6835,1.6889,1.6898,1.6931,1.6967,1.6976,1.6978,1.6991,1.7058,1.7057,1.7057,1.7016,1.7013,1.701,0,0,0,0,0,1.6639,1.6647,1.6661,1.6672,1.6737,1.6775,1.6784,1.6821,1.683,1.6837,1.6872,1.6896,1.6971,1.6969,1.698,1.6983,1.7058,1.7057,1.7057,1.7017,1.7013,1.701,0,0,0,0,0,0,1.6594,1.6654,1.6671,1.6696,1.673,1.6784,1.6793,1.6816,1.6849,1.6851,1.6897,1.6909,1.6936,1.6963,1.696,1.7002,1.7017,1.7019,1.6983,1.698,1.6977,1.697,1.6994,0,0,0,0,0,1.6586,1.6611,1.6663,1.668,1.6696,1.6741,1.676,1.6785,1.6823,1.6838,1.6875,1.6911,1.6943,1.6963,1.6996,1.702,1.7033,1.7028,1.7025,1.7022,1.7023,1.7038,1.7036,1.7056,1.7056,1.7056,0,0,1.6572,1.6608,1.6621,1.6672,1.6701,1.6727,1.6753,1.6779,1.6799,1.6842,1.6873,1.6902,1.6946,1.6974,1.6989,1.6998,1.7021,1.7022,1.7019,1.7021,1.7038,1.7036,1.7034,1.7055,1.7055,1.7055,0,0,1.6558,1.6588,1.6605,1.6634,1.6677,1.6708,1.6712,1.6762,1.6782,1.6815,1.6848,1.6873,1.6927,1.6957,1.6979,1.6978,1.7002,1.6988,1.6971,1.6986,1.6984,1.6983,1.6983,1.6982,1.6988,1.6988,1.6988,0,1.6535,1.6573,1.6611,1.6635,1.6657,1.6696,1.6715,1.6742,1.6794,1.6809,1.6818,1.6886,1.6919,1.6955,1.6954,1.6971,1.6978,1.6981,1.6981,1.698,1.698,1.698,1.698,1.6986,1.6986,1.6987,1.6987,0,1.6542,1.6568,1.6578,1.6625,1.6649,1.667,1.6713,1.6732,1.6756,1.6786,1.6819,1.6859,1.6901,1.6911,1.6936,1.6951,1.6955,1.6972,1.6988,1.6975,1.6976,1.6976,1.6983,1.6984,1.6985,1.6985,0,0,1.6501,1.657,1.6573,1.6596,1.6647,1.6669,1.6693,1.6732,1.6747,1.6783,1.6804,1.6849,1.6865,1.6891,1.6919,1.6932,1.6928,1.6948,1.6949,1.6942,1.6948,1.6934,1.6933,1.6944,1.6945,1.6945,1.6944,0,1.6494,1.6537,1.6573,1.6602,1.6627,1.6666,1.6687,1.6721,1.675,1.6777,1.681,1.6841,1.686,1.6875,1.689,1.6925,1.693,1.6926,1.6966,1.6967,1.6952,1.6933,1.6919,1.6916,1.6944,1.6944,1.6944,0,1.6492,1.6524,1.6556,1.6605,1.6617,1.6635,1.6674,1.6699,1.6739,1.676,1.6788,1.6817,1.6846,1.6859,1.6899,1.6896,1.6915,1.6935,1.6936,1.694,1.6954,1.6937,1.6916,1.6915,1.6945,1.6945,1.6945,0,1.6458,1.651,1.6536,1.6554,1.6612,1.6624,1.6649,1.669,1.6711,1.6746,1.676,1.6799,1.6819,1.6849,1.6889,1.6895,1.6925,1.6942,1.6943,1.6942,1.6947,1.6946,1.6927,1.696,1.696,1.696,1.696,0,1.6446,1.6464,1.6521,1.6537,1.6558,1.66,1.6621,1.665,1.6686,1.6709,1.6746,1.6767,1.6818,1.6846,1.6878,1.6906,1.6916,1.6933,1.6941,1.693,1.6927,1.6942,1.6943,1.696,1.696,1.696,1.696,0,1.6411,1.645,1.6481,1.6533,1.6547,1.6561,1.6606,1.6624,1.6655,1.6684,1.6693,1.6743,1.6778,1.682,1.6869,1.689,1.6916,1.6928,1.6901,1.6905,1.6904,1.6903,1.6894,1.6895,1.6927,1.6927,1.6926,0,1.64,1.6415,1.6469,1.6486,1.651,1.6538,1.6559,1.6602,1.6624,1.6672,1.6684,1.6721,1.6753,1.6807,1.6848,1.6886,1.6899,1.6893,1.6905,1.6893,1.6899,1.6897,1.6898,1.689,1.6889,1.6889,1.6889,0,1.6377,1.6396,1.6425,1.6461,1.6486,1.6517,1.6549,1.6562,1.6612,1.6635,1.667,1.6694,1.6744,1.6781,1.6824,1.6852,1.6879,1.6885,1.6887,1.6874,1.6858,1.6866,1.6892,1.6884,1.6885,1.6885,1.6885,1.6886,1.6354,1.6368,1.6409,1.644,1.6469,1.6499,1.6518,1.6551,1.6581,1.6623,1.6648,1.6682,1.6724,1.6785,1.6811,1.684,1.685,1.6853,1.6854,1.6854,1.685,1.6854,1.6848,1.6849,1.6849,1.6849,1.6849,0,1.6332,1.636,1.6388,1.6432,1.6457,1.648,1.6518,1.6537,1.6567,1.6603,1.6633,1.6674,1.671,1.6755,1.6794,1.6809,1.6822,1.6817,1.6816,1.6822,1.6839,1.6833,1.6806,1.6806,1.6806,1.6806,1.6806,1.6806,1.6323,1.6349,1.6373,1.6414,1.6442,1.6475,1.6495,1.6523,1.6552,1.6595,1.6625,1.6653,1.6693,1.6736,1.677,1.6783,1.6795,1.6787,1.6803,1.6817,1.6821,1.6825,1.6819,1.6789,1.6789,1.6784,1.6783,1.6783]},{"header":{"parameterUnit":"m.s-1","parameterCategory":1,"la1":30.2991,"la2":30.254,"lo1":-89.0895,"lo2":-89.0444,"dy":0.0017,"dx":0.0017,"nx":28,"ny":28,"refTime":"2025-06-19T09:00:00:Z","depth":0,"parameterNumber":3,"parameterNumberName":"V-component_of_WINDS"},"data":[0,0,0,0,0,0,0,0,0,0,0,0,0,0,0,0,0,0,0,0,0,0,0,0,0,0,0,0,0,0,0,0,0,0,0,0,0,0,0,0,0,0,0,0,0,0,0,0,0,0,0,0,0,0,0,0,0,0,2.6034,2.6034,0,2.6035,2.6035,2.6035,2.6034,2.6034,2.6034,2.6034,2.6033,2.6033,2.6033,0,0,0,0,0,0,0,0,0,0,0,0,0,2.6028,2.6028,2.6034,2.6034,2.6034,2.6035,2.6035,2.6035,2.6034,2.6034,2.6034,2.6034,2.6033,2.6033,2.6033,0,0,0,0,0,0,0,0,0,0,0,0,0,2.603,2.6028,2.6034,2.6033,2.6033,2.6035,2.6035,2.6035,2.6034,2.6034,2.6034,2.6034,2.6033,2.6033,2.6033,2.6034,0,0,2.6033,2.6033,0,0,0,0,0,0,0,0,2.603,2.603,2.6033,2.6033,2.6033,2.6034,2.6032,2.6034,2.6034,2.6034,2.6034,2.6034,2.6033,2.6033,2.6034,2.6034,2.6034,2.6033,2.6033,2.6033,2.6033,0,0,0,0,0,0,0,2.603,2.603,2.6034,2.6033,2.6034,2.6032,2.6033,2.6033,2.6034,2.6034,2.6034,2.6034,2.6033,2.6034,2.6034,2.6034,2.6033,2.6033,2.6033,2.6033,2.6033,2.6033,0,0,0,0,0,0,2.603,2.603,2.6034,2.6034,2.6032,2.6033,2.6033,2.6034,2.6034,2.6034,2.6034,2.6034,2.6034,2.6034,2.6034,2.6033,2.6033,2.6033,2.6033,2.6033,2.6033,2.6033,0,0,0,0,0,0,2.603,2.603,2.6034,2.6032,2.6032,2.6033,2.6034,2.6034,2.6034,2.6034,2.6034,2.6034,2.6034,2.6034,2.6034,2.6033,2.6033,2.6033,2.6033,2.6033,2.6033,2.6034,0,0,0,0,0,0,2.603,2.603,2.6031,2.6032,2.6032,2.6035,2.6034,2.6034,2.6035,2.6034,2.6034,2.6034,2.6034,2.6034,2.6034,2.6033,2.6033,2.6033,2.6033,2.6033,2.6034,2.6034,2.6034,0,0,0,0,0,2.6029,2.6031,2.6031,2.6032,2.6034,2.6035,2.6035,2.6035,2.6035,2.6035,2.6035,2.6034,2.6033,2.6034,2.6034,2.6033,2.6033,2.6033,2.6033,2.6034,2.6034,2.6034,0,0,0,0,0,0,2.6031,2.6032,2.6032,2.6034,2.6034,2.6035,2.6036,2.6035,2.6035,2.6035,2.6034,2.6034,2.6034,2.6034,2.6034,2.6033,2.6033,2.6033,2.6034,2.6034,2.6034,2.6034,2.6033,0,0,0,0,0,2.6031,2.6033,2.6033,2.6035,2.6035,2.6035,2.6036,2.6036,2.6036,2.6036,2.6035,2.6035,2.6034,2.6034,2.6033,2.6033,2.6033,2.6033,2.6033,2.6033,2.6033,2.6031,2.6031,2.6033,2.6033,2.6033,0,0,2.6032,2.6033,2.6034,2.6035,2.6036,2.6036,2.6036,2.6036,2.6036,2.6036,2.6036,2.6035,2.6034,2.6034,2.6034,2.6033,2.6032,2.6033,2.6033,2.6033,2.6031,2.6031,2.6031,2.6033,2.6033,2.6033,0,0,2.6035,2.6036,2.6037,2.6037,2.6038,2.6037,2.6037,2.6038,2.6037,2.6037,2.6036,2.6035,2.6035,2.6034,2.6033,2.6033,2.6032,2.6033,2.6033,2.6032,2.6032,2.6031,2.603,2.603,2.6033,2.6033,2.6033,0,2.6036,2.6038,2.6038,2.6038,2.6038,2.6038,2.6038,2.6038,2.6038,2.6037,2.6037,2.6036,2.6035,2.6034,2.6034,2.6033,2.6033,2.6033,2.6032,2.6032,2.6031,2.603,2.603,2.6033,2.6033,2.6033,2.6033,0,2.6039,2.6039,2.604,2.604,2.604,2.6041,2.604,2.604,2.6039,2.6038,2.6037,2.6036,2.6035,2.6035,2.6034,2.6033,2.6032,2.6032,2.6032,2.6031,2.603,2.603,2.6033,2.6033,2.6033,2.6033,0,0,2.6043,2.6042,2.6042,2.6042,2.6041,2.6041,2.6041,2.604,2.6039,2.6039,2.6037,2.6036,2.6035,2.6035,2.6034,2.6032,2.6031,2.6032,2.6032,2.6031,2.6028,2.6028,2.6027,2.603,2.603,2.603,2.6027,0,2.6045,2.6045,2.6044,2.6044,2.6044,2.6042,2.6042,2.6041,2.604,2.6039,2.6037,2.6036,2.6035,2.6035,2.6033,2.6031,2.603,2.6032,2.6028,2.6028,2.6028,2.6027,2.6027,2.6025,2.6027,2.6027,2.6027,0,2.6047,2.6047,2.6046,2.6045,2.6044,2.6044,2.6042,2.6042,2.604,2.6039,2.6037,2.6036,2.6034,2.6034,2.603,2.6031,2.6029,2.6028,2.6028,2.6027,2.6027,2.6026,2.6024,2.6024,2.6027,2.6027,2.6027,0,2.6049,2.6048,2.6048,2.6047,2.6045,2.6045,2.6044,2.6042,2.6041,2.6039,2.6038,2.6035,2.6034,2.6032,2.6029,2.6029,2.6025,2.6025,2.6024,2.6024,2.6023,2.6023,2.6021,2.6022,2.6022,2.6022,2.6022,0,2.6051,2.605,2.6048,2.6048,2.6047,2.6046,2.6044,2.6043,2.6041,2.6039,2.6038,2.6036,2.6033,2.6031,2.6029,2.6025,2.6025,2.6023,2.6023,2.6023,2.6023,2.6022,2.6022,2.6022,2.6022,2.6022,2.6022,0,2.6053,2.6052,2.6051,2.6049,2.6048,2.6047,2.6045,2.6044,2.6042,2.604,2.6039,2.6036,2.6033,2.603,2.6026,2.6025,2.6021,2.6021,2.6022,2.6021,2.602,2.602,2.6016,2.6015,2.6018,2.6018,2.6018,0,2.6054,2.6054,2.6051,2.605,2.6049,2.6048,2.6047,2.6044,2.6043,2.604,2.6039,2.6035,2.6033,2.6028,2.6024,2.6021,2.602,2.6019,2.6019,2.6019,2.6019,2.6019,2.6018,2.6019,2.6019,2.6019,2.6019,0,2.6056,2.6055,2.6053,2.6051,2.605,2.6048,2.6046,2.6045,2.6042,2.604,2.6037,2.6035,2.6031,2.6027,2.6023,2.602,2.6018,2.6018,2.6018,2.6018,2.6019,2.6017,2.6021,2.6019,2.6019,2.6019,2.6019,2.6019,2.6057,2.6056,2.6054,2.6052,2.605,2.6048,2.6046,2.6044,2.6042,2.6038,2.6037,2.6033,2.6029,2.6024,2.6021,2.6017,2.6017,2.6016,2.6016,2.6016,2.6015,2.6019,2.6017,2.6017,2.6017,2.6017,2.6017,0,2.6058,2.6056,2.6054,2.6052,2.6049,2.6048,2.6046,2.6044,2.6041,2.6038,2.6035,2.6031,2.6027,2.6023,2.6018,2.6016,2.6015,2.6015,2.6015,2.6014,2.6016,2.6017,2.6015,2.6015,2.6015,2.6015,2.6015,2.6015,2.6058,2.6056,2.6055,2.6051,2.6049,2.6046,2.6045,2.6042,2.6039,2.6035,2.6032,2.6029,2.6025,2.602,2.6016,2.6015,2.6013,2.6013,2.6011,2.6014,2.6014,2.6014,2.6015,2.6012,2.6012,2.6009,2.6009,2.6009]}]]